Preview of NWS' New Version of Forecast
This preview is not operational and should not be used for support decisions.

Regional Weather Roundup (RWR)

Issued by National Weather Service (NWS)

                            
000
ASUS46 KPQR 230510
RWROR 

OREGON REGIONAL WEATHER ROUNDUP
NATIONAL WEATHER SERVICE PORTLAND OR
1000 PM PDT SAT JUN 22 2019

NOTE: "FAIR" INDICATES FEW OR NO CLOUDS BELOW 12,000 FEET WITH
NO SIGNIFICANT WEATHER AND/OR OBSTRUCTIONS TO VISIBILITY.

ORZ001>013-230600-
NORTHWEST OREGON

  
CITY           SKY/WX    TMP DP  RH WIND       PRES   REMARKS
ASTORIA        CLOUDY    56  54  93 NW12      30.24S                  
TILLAMOOK      CLOUDY    57  52  82 W6        30.27S                  
NEWPORT        CLOUDY    55  52  88 N6        30.29R                  
PORTLAND       MOCLDY    63  51  65 NW8       30.21R                  
VANCOUVER WA   CLOUDY    62  50  64 NW12      30.21R                  
SCAPPOOSE      CLOUDY    61  51  70 NW5       30.21R                  
HILLSBORO      CLOUDY    60  51  72 N3        30.22R                  
AURORA         MOCLDY    63  50  62 N8        30.22R                  
MCMINNVILLE    CLOUDY    62  51  67 N8        30.21R                  
SALEM          CLOUDY    63  50  62 NW12      30.20R                  
CORVALLIS      CLEAR     60  50  69 NW16      30.21R                  
EUGENE         PTCLDY    59  49  69 NE6       30.20R                  
$$

ORZ021-028-230600-
SOUTHWEST OREGON

  
CITY           SKY/WX    TMP DP  RH WIND       PRES   REMARKS
NORTH BEND     CLEAR     55  52  89 N14       30.27R                  
BROOKINGS      CLEAR     73  43  33 N13       30.08R                  
ROSEBURG       CLEAR     69  45  41 NW6       30.17R                  
SEXTON SUMMIT  CLEAR     57  42  57 N10G20    30.21R                  
GRANTS PASS    FAIR      70  46  43 NW9       30.16R                  
MEDFORD        CLEAR     72  39  30 N9        30.12R                  
$$

ORZ014>016-041-230600-
COLUMBIA GORGE

  
CITY           SKY/WX    TMP DP  RH WIND       PRES   REMARKS
TROUTDALE      CLOUDY    63  51  65 VRB5      30.21R                  
HOOD RIVER     MOCLDY    63  46  55 CALM      30.14R                  
THE DALLES     PTCLDY    66  47  50 SW16G25   30.08R                  
$$

ORZ029>031-041-044-049-050-061>064-502-503-505>511-230600-
EASTERN OREGON

  
CITY           SKY/WX    TMP DP  RH WIND       PRES   REMARKS
MADRAS         CLEAR     55  41  58 NW20      30.15S                  
REDMOND        CLEAR     61  39  44 NW7       30.15R                  
BEND           CLEAR     59  41  51 N7        30.15R                  
PRINEVILLE     CLEAR     57  37  47 N8        30.15R                  
KLAMATH FALLS  CLEAR     59  43  55 W5        30.15R                  
LAKEVIEW       CLEAR     55  38  52 W3        30.16R                  
HERMISTON      MOCLDY    68  47  46 SW22G32   29.97R                  
PENDLETON      PTCLDY    66  41  40 W21G32    30.00R                  
JOHN DAY       CLEAR     64  38  38 W7        30.10R                  
MEACHAM        CLEAR     53  40  61 CALM      30.10S                  
LA GRANDE      PTCLDY    61  40  45 W6        30.06S                  
BAKER CITY     PTCLDY    58  50  75 W6        30.07S                  
BURNS          CLEAR     56  33  42 NW9       30.11R                  
ROME             N/A     53  27  36 S6        30.10R                  
ONTARIO        MOCLDY    66  49  54 CALM      30.03R                  
$$